Location: Peebles
(55.6412°N, 3.1714°W)
Time: 21:57:31
(UTC+00:00)

deb Agena D - Pass Details

Date: 26 September 2023
Orbit: 794 x 979 km, 99.8° (Epoch: 28 November)

Event Time Altitude Azimuth Distance (km) Brightness Sun altitude
Rises 23:23:24 0° 26° (NNE) 3,695 9.9 -32.1°
Reaches altitude 10° 23:27:24 10° 52° (NE) 2,731 8.9 -32.4°
Enters shadow 23:28:15 12° 59° (ENE) 2,597 8.7 -32.4°
